W5UGD Weather Reports


time (UTC)temp
F
wind
direction
speed
knots
gust
knots
rain 1hr
in
rain 24hr
in
rain mn
in
humidity
%
barometer
mb
20260509002503 63 0 0.0 0.0 0.00 0.00 0.00 74 1013.8
20260509002003 63 0 0.0 0.0 0.00 0.00 0.00 73 1013.7
20260509001503 64 0 0.0 0.0 0.00 0.00 0.00 73 1013.6
20260509001024 64 0 0.0 0.0 0.00 0.00 0.00 74 1013.5
20260509000503 64 0 0.0 0.0 0.00 0.00 0.00 74 1013.4
20260509000003 64 0 0.0 0.0 0.00 0.00 0.00 74 1013.5
20260508235503 65 0 0.0 0.0 0.00 0.00 0.00 72 1013.4
20260508235003 65 0 0.0 0.0 0.00 0.00 0.00 72 1013.4
20260508234503 65 0 0.0 0.0 0.00 0.00 0.00 72 1013.3
20260508234003 66 95 0.0 0.9 0.00 0.00 0.00 74 1013.4
20260508233503 66 94 0.0 0.9 0.00 0.00 0.00 72 1013.4
20260508233003 66 94 0.0 0.9 0.00 0.00 0.00 72 1013.5
20260508232503 66 0 0.0 0.0 0.00 0.00 0.00 73 1013.5
20260508232024 66 0 0.0 0.0 0.00 0.00 0.00 71 1013.4
20260508231503 67 0 0.0 0.0 0.00 0.00 0.00 69 1013.5
20260508231003 67 93 0.0 0.9 0.00 0.00 0.00 69 1013.5
20260508230503 67 93 0.0 0.9 0.00 0.00 0.00 67 1013.3
20260508230003 67 0 0.0 0.0 0.00 0.00 0.00 66 1013.3
20260508225503 68 92 0.0 1.7 0.00 0.00 0.00 64 1013.4
20260508225003 68 92 0.0 1.7 0.00 0.00 0.00 64 1013.3
20260508224503 68 87 0.0 0.9 0.00 0.00 0.00 64 1013.4
20260508224003 68 89 0.0 1.7 0.00 0.00 0.00 61 1013.3
20260508223503 68 95 0.0 1.7 0.00 0.00 0.00 61 1013.4
20260508223024 68 95 0.0 1.7 0.00 0.00 0.00 63 1013.4
20260508222504 68 94 0.0 1.7 0.00 0.00 0.00 64 1013.5
20260508222003 68 98 0.0 0.9 0.00 0.00 0.00 63 1013.4
20260508221503 68 105 0.0 0.9 0.00 0.00 0.00 60 1013.4
20260508221003 69 109 0.0 1.7 0.00 0.00 0.00 62 1013.3
20260508220503 69 63 0.0 2.6 0.00 0.00 0.00 61 1013.3
20260508220003 69 63 0.9 2.6 0.00 0.00 0.00 61 1013.4
20260508215503 69 98 0.0 1.7 0.00 0.00 0.00 60 1013.3
20260508215024 69 112 0.0 2.6 0.00 0.00 0.00 58 1013.2
20260508214524 70 111 0.0 2.6 0.00 0.00 0.00 58 1013.3
20260508214003 70 106 0.0 0.9 0.00 0.00 0.00 60 1013.2
20260508213524 70 106 0.0 0.9 0.00 0.00 0.00 58 1013.3
20260508213003 70 107 0.0 2.6 0.00 0.00 0.00 60 1013.4
20260508212503 70 101 0.9 2.6 0.00 0.00 0.00 57 1013.4
20260508212003 70 78 0.0 1.7 0.00 0.00 0.00 58 1013.4
20260508211503 70 57 0.0 3.5 0.00 0.00 0.00 58 1013.5
20260508211003 70 63 0.9 3.5 0.00 0.00 0.00 56 1013.4
20260508210503 71 74 0.9 2.6 0.00 0.00 0.00 56 1013.3
20260508210003 71 68 0.9 2.6 0.00 0.00 0.00 55 1013.3
20260508205503 71 85 0.9 4.3 0.00 0.00 0.00 53 1013.4
20260508205003 71 88 0.9 4.3 0.00 0.00 0.00 53 1013.4
20260508204503 71 67 0.9 2.6 0.00 0.00 0.00 54 1013.4
20260508204024 71 51 0.9 2.6 0.00 0.00 0.00 54 1013.4
20260508203524 71 11 0.9 5.2 0.00 0.00 0.00 52 1013.5
20260508203003 71 34 0.9 5.2 0.00 0.00 0.00 51 1013.5
20260508202503 71 60 0.9 3.5 0.00 0.00 0.00 53 1013.5
20260508202003 72 5 1.7 7.8 0.00 0.00 0.00 52 1013.4
20260508201503 72 317 0.9 7.8 0.00 0.00 0.00 50 1013.7
20260508201003 73 130 0.0 2.6 0.00 0.00 0.00 51 1013.7
20260508200503 72 20 0.9 2.6 0.00 0.00 0.00 50 1013.8
20260508200003 72 36 0.9 2.6 0.00 0.00 0.00 51 1013.9
20260508195524 72 33 0.9 3.5 0.00 0.00 0.00 51 1014.0
20260508195003 72 58 0.9 3.5 0.00 0.00 0.00 52 1014.1
20260508194503 72 111 0.9 3.5 0.00 0.00 0.00 52 1014.2
20260508194003 72 125 0.9 3.5 0.00 0.00 0.00 49 1014.2
20260508193524 73 99 0.9 4.3 0.00 0.00 0.00 51 1014.2
20260508193003 72 59 0.9 6.1 0.00 0.00 0.00 48 1014.3
20260508192503 72 51 0.9 6.1 0.00 0.00 0.00 52 1014.5
20260508192003 73 157 0.9 1.7 0.00 0.00 0.00 50 1014.5
20260508191503 73 87 0.9 3.5 0.00 0.00 0.00 49 1014.6
20260508191003 74 109 0.9 3.5 0.00 0.00 0.00 48 1014.6
20260508190503 74 127 0.9 3.5 0.00 0.00 0.00 47 1014.5
20260508190003 75 97 0.9 3.5 0.00 0.00 0.00 46 1014.6
20260508185503 74 51 1.7 5.2 0.00 0.00 0.00 47 1014.7
20260508185003 74 24 1.7 5.2 0.00 0.00 0.00 49 1015.0
20260508184504 73 31 0.9 5.2 0.00 0.00 0.00 50 1015.0
20260508184003 73 95 0.9 2.6 0.00 0.00 0.00 51 1015.0
20260508183524 72 17 0.9 5.2 0.00 0.00 0.00 52 1015.2
20260508183003 72 7 0.9 5.2 0.00 0.00 0.00 50 1015.2
20260508182503 72 84 0.9 1.7 0.00 0.00 0.00 53 1015.3
20260508182003 71 98 0.9 2.6 0.00 0.00 0.00 53 1015.3
20260508181503 71 38 0.9 4.3 0.00 0.00 0.00 52 1015.3
20260508181003 71 36 0.9 4.3 0.00 0.00 0.00 53 1015.6
20260508180503 71 77 0.9 2.6 0.00 0.00 0.00 51 1015.5
20260508180003 71 83 0.9 3.5 0.00 0.00 0.00 51 1015.6
20260508175503 72 38 0.9 3.5 0.00 0.00 0.00 52 1015.7
20260508175003 71 54 0.9 3.5 0.00 0.00 0.00 52 1015.7
20260508174503 71 106 0.9 3.5 0.00 0.00 0.00 54 1015.8
20260508174003 70 74 0.9 5.2 0.00 0.00 0.00 54 1015.8
20260508173503 70 75 0.9 5.2 0.00 0.00 0.00 51 1015.8
20260508173003 71 146 0.9 2.6 0.00 0.00 0.00 51 1016.0
20260508172503 70 96 0.9 4.3 0.00 0.00 0.00 50 1015.9
20260508172003 71 36 0.9 4.3 0.00 0.00 0.00 50 1015.9
20260508171503 71 73 0.9 6.1 0.00 0.00 0.00 53 1016.1
20260508171003 70 93 1.7 6.1 0.00 0.00 0.00 55 1016.2
20260508170503 70 82 1.7 3.5 0.00 0.00 0.00 54 1016.3
20260508170003 69 96 0.9 3.5 0.00 0.00 0.00 53 1016.3
20260508165503 68 112 0.9 4.3 0.00 0.00 0.00 55 1016.4
20260508165024 69 103 0.9 4.3 0.00 0.00 0.00 56 1016.5
20260508164503 70 84 0.0 1.7 0.00 0.00 0.00 53 1016.6
20260508164024 71 91 0.0 1.7 0.00 0.00 0.00 54 1016.7
20260508163524 71 112 0.0 1.7 0.00 0.00 0.00 51 1016.8
20260508163003 70 190 0.9 4.3 0.00 0.00 0.00 53 1016.9
20260508162503 69 176 0.9 4.3 0.00 0.00 0.00 53 1016.9
20260508162024 69 136 0.9 3.5 0.00 0.00 0.00 55 1016.9
20260508161503 69 165 0.9 3.5 0.00 0.00 0.00 54 1016.9
20260508161003 68 190 0.9 4.3 0.00 0.00 0.00 53 1016.9
20260508160503 69 197 0.9 4.3 0.00 0.00 0.00 49 1017.0
20260508160003 70 349 0.0 2.6 0.00 0.00 0.00 50 1017.1
20260508155503 70 210 0.9 3.5 0.00 0.00 0.00 54 1017.2
20260508155003 70 93 0.9 3.5 0.00 0.00 0.00 51 1017.2
20260508154503 70 60 0.9 3.5 0.00 0.00 0.00 53 1017.4
20260508154024 70 45 0.9 2.6 0.00 0.00 0.00 52 1017.4
20260508153503 69 35 0.9 4.3 0.00 0.00 0.00 54 1017.4
20260508153003 69 46 1.7 4.3 0.00 0.00 0.00 53 1017.5
20260508152503 69 36 0.9 4.3 0.00 0.00 0.00 54 1017.5
20260508152003 68 20 0.9 4.3 0.00 0.00 0.00 56 1017.6
20260508151503 68 159 0.9 2.6 0.00 0.00 0.00 54 1017.5
20260508151003 69 134 0.9 2.6 0.00 0.00 0.00 52 1017.5
20260508150503 69 162 0.9 3.5 0.00 0.00 0.00 54 1017.5
20260508150004 68 70 0.9 5.2 0.00 0.00 0.00 57 1017.4
20260508145503 67 109 0.9 5.2 0.00 0.00 0.00 56 1017.4
20260508145024 67 142 0.9 6.1 0.00 0.00 0.00 60 1017.4
20260508144524 67 93 0.9 6.1 0.00 0.00 0.00 58 1017.3
20260508144003 66 84 0.9 2.6 0.00 0.00 0.00 59 1017.3
20260508143503 66 120 0.9 2.6 0.00 0.00 0.00 61 1017.3
20260508143003 66 131 0.9 3.5 0.00 0.00 0.00 63 1017.3
20260508142503 65 111 0.9 3.5 0.00 0.00 0.00 60 1017.4
20260508142024 65 94 0.9 3.5 0.00 0.00 0.00 61 1017.5
20260508141503 64 93 0.9 3.5 0.00 0.00 0.00 64 1017.5
20260508141003 63 129 0.9 3.5 0.00 0.00 0.00 64 1017.6
20260508140503 63 146 0.9 2.6 0.00 0.00 0.00 65 1017.7
20260508140004 62 82 0.9 3.5 0.00 0.00 0.00 66 1017.8
20260508135524 62 67 0.9 3.5 0.00 0.00 0.00 67 1017.7
20260508135003 61 130 0.9 2.6 0.00 0.00 0.00 69 1017.7
20260508134503 61 126 0.9 2.6 0.00 0.00 0.00 71 1017.7
20260508134024 60 102 0.9 2.6 0.00 0.00 0.00 69 1017.8
20260508133503 60 185 0.0 1.7 0.00 0.00 0.00 73 1017.8
20260508133003 60 259 0.0 1.7 0.00 0.00 0.00 75 1017.8
20260508132503 59 135 0.9 4.3 0.00 0.00 0.00 75 1017.7
20260508132003 59 135 0.9 4.3 0.00 0.00 0.00 77 1017.7
20260508131503 58 159 0.0 1.7 0.00 0.00 0.00 76 1017.7
20260508131003 58 211 0.0 1.7 0.00 0.00 0.00 79 1017.6
20260508130503 58 191 0.0 1.7 0.00 0.00 0.00 78 1017.5
20260508130003 58 169 0.0 1.7 0.00 0.00 0.00 81 1017.5
20260508125503 57 244 0.0 1.7 0.00 0.00 0.00 82 1017.4
20260508125003 57 250 0.0 1.7 0.00 0.00 0.00 83 1017.4
20260508124503 56 263 0.0 1.7 0.00 0.00 0.00 85 1017.2
20260508124024 56 264 0.0 0.9 0.00 0.00 0.00 87 1017.3
20260508123503 56 264 0.0 0.9 0.00 0.00 0.00 89 1017.2
20260508123003 55 270 0.0 0.9 0.00 0.00 0.00 90 1017.2
20260508122503 55 270 0.0 0.9 0.00 0.00 0.00 91 1017.2
20260508122024 54 0 0.0 0.0 0.00 0.00 0.00 92 1017.1
20260508121503 54 131 0.0 0.9 0.00 0.00 0.00 92 1017.0
20260508121003 53 131 0.0 0.9 0.00 0.00 0.00 93 1016.9
20260508120524 53 131 0.0 0.9 0.00 0.00 0.00 94 1016.9
20260508120003 52 0 0.0 0.9 0.00 0.00 0.00 94 1016.9
20260508115524 52 0 0.0 0.0 0.00 0.00 0.00 94 1016.8
20260508115003 51 0 0.0 0.0 0.00 0.00 0.00 94 1016.7
20260508114503 51 0 0.0 0.9 0.00 0.00 0.00 94 1016.7
20260508114003 51 0 0.0 0.9 0.00 0.00 0.00 94 1016.6
20260508113503 51 0 0.0 0.0 0.00 0.00 0.00 94 1016.5
20260508113024 50 0 0.0 0.0 0.00 0.00 0.00 94 1016.4
20260508112503 50 0 0.0 0.0 0.00 0.00 0.00 94 1016.2
20260508112003 50 0 0.0 0.9 0.00 0.00 0.00 94 1016.1
20260508111503 50 0 0.0 0.9 0.00 0.00 0.00 94 1016.1
20260508111003 50 0 0.0 0.0 0.00 0.00 0.00 94 1016.0
20260508110503 50 0 0.0 0.9 0.00 0.00 0.00 93 1015.9
20260508110003 50 0 0.0 0.9 0.00 0.00 0.00 94 1015.8
20260508105503 50 0 0.0 0.0 0.00 0.00 0.00 94 1015.5
20260508105003 49 0 0.0 0.0 0.00 0.00 0.00 93 1015.5
20260508104503 50 0 0.0 0.0 0.00 0.00 0.00 93 1015.5
20260508104003 50 0 0.0 0.0 0.00 0.00 0.00 93 1015.4
20260508103503 50 0 0.0 0.0 0.00 0.00 0.00 92 1015.4
20260508103003 50 0 0.0 0.0 0.00 0.00 0.00 92 1015.4
20260508102503 50 0 0.0 0.0 0.00 0.00 0.00 92 1015.2
20260508102003 50 0 0.0 0.0 0.00 0.00 0.00 92 1015.1
20260508101503 50 0 0.0 0.0 0.00 0.00 0.00 92 1015.1
20260508101003 50 0 0.0 0.9 0.00 0.00 0.00 91 1015.0
20260508100524 51 0 0.0 0.9 0.00 0.00 0.00 91 1014.9
20260508100003 51 0 0.0 0.0 0.00 0.00 0.00 91 1014.9
20260508095503 51 149 0.0 0.9 0.00 0.00 0.00 90 1014.9
20260508095003 51 149 0.0 0.9 0.00 0.00 0.00 90 1014.7
20260508094503 52 150 0.0 0.9 0.00 0.00 0.00 90 1014.7
20260508094003 52 149 0.0 0.9 0.00 0.00 0.00 90 1014.6
20260508093503 52 149 0.0 0.9 0.00 0.00 0.00 89 1014.7
20260508093003 52 149 0.0 0.9 0.00 0.00 0.00 89 1014.7
20260508092524 52 149 0.0 0.9 0.00 0.00 0.00 90 1014.6
20260508092003 53 149 0.0 0.9 0.00 0.00 0.00 90 1014.5
20260508091503 53 149 0.0 0.9 0.00 0.00 0.00 90 1014.4
20260508091003 53 0 0.0 0.0 0.00 0.00 0.00 90 1014.3
20260508090503 53 149 0.0 1.7 0.00 0.00 0.00 90 1014.3
20260508090003 53 137 0.0 1.7 0.00 0.00 0.00 90 1014.3
20260508085503 53 109 0.0 0.9 0.00 0.00 0.00 91 1014.3
20260508085003 53 91 0.0 0.9 0.00 0.00 0.00 91 1014.2
20260508084503 52 91 0.0 1.7 0.00 0.00 0.00 91 1014.2
20260508084003 52 91 0.0 1.7 0.00 0.00 0.00 91 1014.3
20260508083503 52 0 0.0 0.0 0.00 0.00 0.00 91 1014.2
20260508083003 52 121 0.0 0.9 0.00 0.00 0.00 91 1014.1
20260508082503 52 121 0.0 0.9 0.00 0.00 0.00 92 1014.1
20260508082003 52 0 0.0 0.0 0.00 0.00 0.00 92 1014.2
20260508081503 52 0 0.0 0.0 0.00 0.00 0.00 93 1014.2
20260508081003 52 0 0.0 0.0 0.00 0.00 0.00 92 1014.1
20260508080503 52 0 0.0 0.0 0.00 0.00 0.00 93 1014.2
20260508080003 52 0 0.0 0.0 0.00 0.00 0.00 93 1014.3
20260508075503 52 0 0.0 0.0 0.00 0.00 0.00 93 1014.2
20260508075003 52 0 0.0 0.0 0.00 0.00 0.00 94 1014.2
20260508074524 52 0 0.0 0.0 0.00 0.00 0.00 94 1014.2
20260508074003 51 0 0.0 0.0 0.00 0.00 0.00 94 1014.0
20260508073503 51 0 0.0 0.0 0.00 0.00 0.00 94 1014.1
20260508073003 51 0 0.0 0.0 0.00 0.00 0.00 94 1014.2
20260508072503 51 0 0.0 0.0 0.00 0.00 0.00 94 1014.1
20260508072003 51 121 0.0 0.9 0.00 0.00 0.00 93 1014.1
20260508071503 51 122 0.0 0.9 0.00 0.00 0.00 93 1014.1
20260508071003 51 122 0.0 0.9 0.00 0.00 0.00 93 1014.0
20260508070503 51 0 0.0 0.0 0.00 0.00 0.00 93 1013.9
20260508070003 51 0 0.0 0.0 0.00 0.00 0.00 93 1013.8
20260508065503 51 0 0.0 0.0 0.00 0.00 0.00 93 1013.7
20260508065003 51 0 0.0 0.0 0.00 0.00 0.00 93 1013.7
20260508064503 51 0 0.0 0.0 0.00 0.00 0.00 93 1013.8
20260508064003 51 0 0.0 0.0 0.00 0.00 0.00 93 1013.7
20260508063503 52 0 0.0 0.0 0.00 0.00 0.00 93 1013.7
20260508063024 52 122 0.0 0.9 0.00 0.00 0.00 93 1013.7
20260508062503 52 122 0.0 0.9 0.00 0.00 0.00 93 1013.7
20260508062003 52 117 0.0 0.9 0.00 0.00 0.00 93 1013.7
20260508061503 52 113 0.0 0.9 0.00 0.00 0.00 93 1013.7
20260508061003 52 100 0.0 0.9 0.00 0.00 0.00 93 1013.8
20260508060503 52 0 0.0 0.0 0.00 0.00 0.00 93 1013.8
20260508060003 52 0 0.0 0.0 0.00 0.00 0.00 92 1013.9
20260508055503 52 100 0.0 0.9 0.00 0.00 0.00 92 1013.9
20260508055003 52 101 0.0 0.9 0.00 0.00 0.00 92 1013.9
20260508054503 52 101 0.0 0.9 0.00 0.00 0.00 91 1013.8
20260508054003 53 0 0.0 0.0 0.00 0.00 0.00 91 1013.9
20260508053503 53 0 0.0 0.0 0.00 0.00 0.00 91 1014.1
20260508053003 53 0 0.0 0.0 0.00 0.00 0.00 91 1014.0
20260508052503 53 0 0.0 0.0 0.00 0.00 0.00 90 1013.9
20260508052024 53 0 0.0 0.0 0.00 0.00 0.00 90 1013.8
20260508051503 53 0 0.0 0.0 0.00 0.00 0.00 90 1013.8
20260508051003 54 0 0.0 0.0 0.00 0.00 0.00 89 1013.8
20260508050503 54 101 0.0 0.9 0.00 0.00 0.00 89 1013.9
20260508050003 54 101 0.0 0.9 0.00 0.00 0.00 89 1013.8
20260508045503 54 0 0.0 0.0 0.00 0.00 0.00 88 1013.7
20260508045003 54 0 0.0 0.0 0.00 0.00 0.00 88 1013.7
20260508044503 54 100 0.0 0.9 0.00 0.00 0.00 86 1013.6
20260508044003 55 100 0.0 0.9 0.00 0.00 0.00 86 1013.7
20260508043503 55 101 0.0 0.9 0.00 0.00 0.00 87 1013.6
20260508043003 55 101 0.0 0.9 0.00 0.00 0.00 86 1013.6
20260508042503 55 0 0.0 0.0 0.00 0.00 0.00 85 1013.5
20260508042003 55 0 0.0 0.0 0.00 0.00 0.00 85 1013.4
20260508041504 56 0 0.0 0.0 0.00 0.00 0.00 85 1013.3
20260508041003 56 0 0.0 0.0 0.00 0.00 0.00 84 1013.3
20260508040503 56 0 0.0 0.0 0.00 0.00 0.00 83 1013.3
20260508040003 56 0 0.0 0.0 0.00 0.00 0.00 82 1013.4
20260508035503 56 0 0.0 0.0 0.00 0.00 0.00 82 1013.3
20260508035003 56 0 0.0 0.0 0.00 0.00 0.00 81 1013.6
20260508034503 56 0 0.0 0.0 0.00 0.00 0.00 80 1013.5
20260508034003 57 0 0.0 0.0 0.00 0.00 0.00 80 1013.4
20260508033503 57 0 0.0 0.0 0.00 0.00 0.00 80 1013.4
20260508033003 57 0 0.0 0.0 0.00 0.00 0.00 80 1013.4
20260508032503 58 0 0.0 0.0 0.00 0.00 0.00 79 1013.5
20260508032024 58 0 0.0 0.0 0.00 0.00 0.00 78 1013.4
20260508031503 58 0 0.0 0.0 0.00 0.00 0.00 77 1013.4
20260508031003 58 0 0.0 0.0 0.00 0.00 0.00 76 1013.2
20260508030503 59 0 0.0 0.0 0.00 0.00 0.00 76 1013.3
20260508030003 59 0 0.0 0.0 0.00 0.00 0.00 75 1013.3
20260508025503 59 0 0.0 0.0 0.00 0.00 0.00 74 1013.3
20260508025024 60 0 0.0 0.0 0.00 0.00 0.00 74 1013.2
20260508024503 60 110 0.0 1.7 0.00 0.00 0.00 72 1013.1
20260508024003 60 110 0.0 1.7 0.00 0.00 0.00 73 1013.0
20260508023524 60 139 0.0 0.9 0.00 0.00 0.00 72 1012.9
20260508023024 60 100 0.0 0.9 0.00 0.00 0.00 72 1012.7
20260508022503 60 114 0.0 0.9 0.00 0.00 0.00 70 1012.8
20260508022003 61 174 0.0 0.9 0.00 0.00 0.00 71 1012.7
20260508021503 61 205 0.0 2.6 0.00 0.00 0.00 73 1012.6
20260508021024 61 214 0.0 2.6 0.00 0.00 0.00 70 1012.5
20260508020503 62 204 0.9 2.6 0.00 0.00 0.00 71 1012.5
20260508020003 62 139 0.9 2.6 0.00 0.00 0.00 69 1012.3
20260508015503 62 143 0.9 4.3 0.00 0.00 0.00 69 1012.3
20260508015003 62 198 0.9 4.3 0.00 0.00 0.00 70 1012.1
20260508014524 62 166 0.9 4.3 0.00 0.00 0.00 70 1011.8
20260508014024 62 146 0.9 5.2 0.00 0.00 0.00 70 1011.8
20260508013503 63 174 0.9 5.2 0.00 0.00 0.00 71 1011.7
20260508013024 63 177 0.0 3.5 0.00 0.00 0.00 73 1011.5
20260508012503 63 167 0.9 3.5 0.00 0.00 0.00 70 1011.4
20260508012003 63 172 0.9 3.5 0.00 0.00 0.00 70 1011.3
20260508011524 64 162 0.9 3.5 0.00 0.00 0.00 71 1011.2
20260508011003 64 142 0.9 2.6 0.00 0.00 0.00 69 1011.2
20260508010503 64 122 0.9 2.6 0.00 0.00 0.00 69 1011.0
20260508010003 64 110 0.9 2.6 0.00 0.00 0.00 68 1011.2
20260508005503 65 118 0.9 2.6 0.00 0.00 0.00 69 1010.8
20260508005003 65 138 0.9 3.5 0.00 0.00 0.00 69 1010.7
20260508004503 66 169 0.9 6.1 0.00 0.00 0.00 68 1010.6
20260508004003 66 164 0.9 6.1 0.00 0.00 0.00 66 1010.5
20260508003503 66 161 0.9 5.2 0.00 0.00 0.00 66 1010.2
20260508003003 67 159 0.9 5.2 0.00 0.00 0.00 66 1010.1